This demonstration page uses our WeatherBlox Daily Observations layout. Learn more.

Left ArrowRight Arrow

31.31129, -92.44514

Hourly Observations for August 20, 2022

Temp ( °F °C ) Dew Point ( °F °C ) Humidity (%) Winds ( mph kmh ) Pressure ( in mb ) Visibility ( mi km ) Precip ( " mm )
12:53 am 00:53 Clear 77 25 71 21.7 82 82 SE 6 9 29.98 1015 10 16 0.00 0.00
1:53 am 01:53 Clear 76 24.4 71 21.7 85 85 SE 6 9 29.99 1016 10 16 0.00 0.00
2:53 am 02:53 Mostly Clear 76 24.4 71 21.7 85 85 SSE 3 6 29.99 1016 10 16 0.00 0.00
3:53 am 03:53 Clear 75 23.9 72 22.2 90 90 SE 3 6 29.99 1016 10 16 0.00 0.00
4:53 am 04:53 Clear 75 23.9 72 22.2 90 90 Calm 30.00 1016 10 16 0.00 0.00
5:53 am 05:53 Mostly Clear 75 23.9 72 22.2 90 90 SSE 5 7 30.01 1016 9 14 0.00 0.00
6:53 am 06:53 Mostly Sunny 76 24.4 73 22.8 91 91 SE 3 6 30.04 1017 9 14 0.00 0.00
7:53 am 07:53 Sunny 78 25.6 74 23.3 87 87 SSE 8 13 30.05 1018 10 16 0.00 0.00
8:53 am 08:53 Sunny 80 26.7 74 23.3 82 82 SSE 5 7 30.06 1018 10 16 0.00 0.00
9:53 am 09:53 Mostly Sunny 85 29.4 76 24.4 75 75 S 5 7 30.06 1018 10 16 0.00 0.00
10:53 am 10:53 Partly Cloudy 87 30.6 76 24.4 70 70 SE 10 17 30.07 1018 10 16 0.00 0.00
11:26 am 11:26 Cloudy 86 30 75 23.9 70 70 SE 7 11 30.05 1018 10 16 0.04 1.02
11:53 am 11:53 Partly Cloudy 88 31.1 76 24.4 68 68 SE 8 13 30.05 1018 10 16 0.04 1.02
12:45 pm 12:45 Mostly Cloudy with Light Rain 87 30.6 74 23.3 65 65 ENE 6 9 30.02 1017 2 2 0.11 2.79
12:56 pm 12:56 Cloudy with Nearby Thunderstorms 81 27.2 72 22.2 74 74 SSE 15 24 30.04 1017 2 3 0.01 0.13
12:59 pm 12:59 Cloudy with Nearby Thunderstorms 80 26.7 71 21.7 74 74 SSE 13 20 30.04 1017 3 5 0.01 0.13
1:05 pm 13:05 Cloudy with Thunderstorms 80 26.7 72 22.2 76 76 S 17 28 30.05 1017 10 16 0.01 0.13
1:25 pm 13:25 Cloudy with Nearby Thunderstorms 77 25 73 22.8 88 88 Calm 30.05 1018 6 10 0.04 1.02
1:53 pm 13:53 Cloudy with Nearby Thunderstorms 77 25 73 22.8 88 88 VRB 5 7 30.06 1018 4 6 0.08 2.03
2:06 pm 14:06 Cloudy with Heavy Rain 78 25.6 73 22.8 85 85 NW 6 9 30.06 1018 3 5 0.03 0.76
2:14 pm 14:14 Cloudy with Rain 77 25 74 23.3 90 90 WNW 7 11 30.06 1018 2 3 0.05 1.27
2:25 pm 14:25 Cloudy with Rain 77 25 72 22.2 84 84 W 8 13 30.05 1018 3 5 0.07 1.78
2:53 pm 14:53 Cloudy 79 26.1 72 22.2 79 79 SW 3 6 30.06 1018 10 16 0.07 1.78
3:53 pm 15:53 Mostly Cloudy with Light Rain 80 26.7 74 23.3 82 82 SW 5 7 30.05 1018 10 16 0.01 0.13
4:53 pm 16:53 Cloudy with Light Rain 80 26.7 75 23.9 85 85 SSE 5 7 30.02 1017 10 16 0.03 0.76
5:53 pm 17:53 Sunny 81 27.2 76 24.4 85 85 S 6 9 30.03 1017 10 16 0.01 0.13
6:53 pm 18:53 Sunny 80 26.7 76 24.4 87 87 SE 3 6 30.03 1017 10 16 0.00 0.00
7:53 pm 19:53 Clear 80 26.7 76 24.4 87 87 SSW 3 6 30.04 1017 10 16 0.00 0.00
8:53 pm 20:53 Clear 79 26.1 76 24.4 90 90 SSE 5 7 30.04 1017 10 16 0.00 0.00
9:53 pm 21:53 Clear 78 25.6 73 22.8 85 85 SSE 9 15 30.04 1017 10 16 0.00 0.00
10:53 pm 22:53 Clear 77 25 73 22.8 88 88 ESE 3 6 30.05 1018 10 16 0.00 0.00
11:53 pm 23:53 Clear 77 25 73 22.8 88 88 S 3 6 30.04 1017 10 16 0.00 0.00

Powered by AerisWeather